Dallas, TX

10:03 AM CST on February 24, 2017 (GMT -0600)
Dallas Love

Weather History for KDAL - September, 2012

Change the Weather History Date:

Wednesday, September 5, 2012

  Actual Average Record
Temperature  
Mean Temperature 90 °F -  
Max Temperature 102 °F 90 °F 102 °F (1998)
Min Temperature 81 °F 71 °F 68 °F (1997)
Cooling Degree Days 26    
Growing Degree Days 40 (Base 50)    
Moisture  
Dew Point 63 °F    
Average Humidity 42    
Maximum Humidity 62    
Minimum Humidity 28    
Precipitation  
Precipitation 0.00 in - - ()
Sea Level Pressure  
Sea Level Pressure 29.82 in    
Wind  
Wind Speed 8 mph (South)    
Max Wind Speed 15 mph    
Max Gust Speed -    
Visibility 10 miles    
Events      
Averages and records for this station are not official NWS values.
T = Trace of Precipitation, MM = Missing Value Source: NWS Daily Summary

Daily Weather History Graph

Daily Weather History Graph

Search for Another Location

Airport or City:

Trip Planner

Search our weather history database for the weather conditions in past years. The results will help you decide how hot, cold, wet, or windy it might be!

Date:

Astronomy

Sep. 05, 2012 Rise Set
Actual Time 7:04 AM CDT 7:46 PM CDT
Civil Twilight 6:39 AM CDT 8:11 PM CDT
Nautical Twilight 6:10 AM CDT 8:40 PM CDT
Astronomical Twilight 5:40 AM CDT 9:10 PM CDT
Moon 10:37 PM CDT (9/5) 11:50 AM CDT (9/5)
Length of Visible Light 13h 31m
Length of Day
12h 41m
Waning Gibbous, 76% of the Moon is Illuminated
Sep 5
Waning Gibbous
Sep 8
Last Quarter
Sep 15
New
Sep 22
First Quarter
Sep 29
Full

Hourly Weather History & Observations

Time (CDT) Temp. Heat Index Dew Point Humidity Pressure Visibility Wind Dir Wind Speed Gust Speed Precip Events Conditions
12:53 AM 88.0 °F 87.9 °F 61.0 °F 40% 29.83 in 10.0 mi SSE 8.1 mph - N/A   Clear
1:53 AM 86.0 °F 86.3 °F 62.1 °F 44% 29.83 in 10.0 mi South 10.4 mph - N/A   Clear
2:53 AM 84.9 °F 86.1 °F 64.0 °F 49% 29.84 in 10.0 mi South 6.9 mph - N/A   Clear
3:53 AM 86.0 °F 87.6 °F 64.9 °F 49% 29.83 in 10.0 mi SSW 4.6 mph - N/A   Clear
4:53 AM 84.0 °F 86.3 °F 66.0 °F 55% 29.83 in 10.0 mi SSW 5.8 mph - N/A   Clear
5:53 AM 82.9 °F 85.0 °F 66.0 °F 56% 29.83 in 10.0 mi SSW 5.8 mph - N/A   Clear
6:53 AM 82.0 °F 84.1 °F 66.0 °F 58% 29.84 in 10.0 mi SSW 6.9 mph - N/A   Partly Cloudy
7:53 AM 81.0 °F 83.3 °F 66.9 °F 62% 29.85 in 10.0 mi SSE 8.1 mph - N/A   Partly Cloudy
8:53 AM 82.0 °F 84.9 °F 68.0 °F 62% 29.87 in 10.0 mi Calm Calm - N/A   Scattered Clouds
9:53 AM 84.9 °F 88.2 °F 68.0 °F 57% 29.88 in 10.0 mi SSW 5.8 mph - N/A   Scattered Clouds
10:53 AM 88.0 °F 90.7 °F 66.9 °F 49% 29.87 in 10.0 mi SSW 9.2 mph - N/A   Scattered Clouds
11:53 AM 91.9 °F 95.9 °F 68.0 °F 45% 29.86 in 10.0 mi SSW 9.2 mph - N/A   Partly Cloudy
12:53 PM 95.0 °F 99.0 °F 66.9 °F 40% 29.83 in 10.0 mi South 10.4 mph - N/A   Partly Cloudy
1:53 PM 99.0 °F 102.9 °F 66.0 °F 34% 29.81 in 10.0 mi South 11.5 mph - N/A   Partly Cloudy
2:53 PM 100.0 °F 103.0 °F 64.0 °F 31% 29.78 in 10.0 mi SW 4.6 mph - N/A   Partly Cloudy
3:53 PM 100.9 °F 103.3 °F 63.0 °F 29% 29.77 in 10.0 mi SSW 6.9 mph - N/A   Scattered Clouds
4:53 PM 100.9 °F 103.3 °F 63.0 °F 29% 29.76 in 10.0 mi Variable 5.8 mph - N/A   Scattered Clouds
5:53 PM 100.9 °F 103.3 °F 63.0 °F 29% 29.75 in 10.0 mi SE 15.0 mph - N/A   Scattered Clouds
6:53 PM 99.0 °F 99.5 °F 61.0 °F 28% 29.76 in 10.0 mi SSE 10.4 mph - N/A   Scattered Clouds
7:53 PM 97.0 °F 96.5 °F 59.0 °F 28% 29.77 in 10.0 mi SSE 9.2 mph - N/A   Scattered Clouds
8:53 PM 95.0 °F 94.4 °F 59.0 °F 30% 29.78 in 10.0 mi South 10.4 mph - N/A   Clear
9:53 PM 93.0 °F 91.7 °F 57.0 °F 30% 29.78 in 10.0 mi South 11.5 mph - N/A   Clear
10:53 PM 90.0 °F 88.6 °F 57.0 °F 33% 29.81 in 10.0 mi South 6.9 mph - N/A   Partly Cloudy
11:53 PM 89.1 °F 87.7 °F 57.0 °F 34% 29.83 in 10.0 mi South 6.9 mph - N/A   Clear